FW8222 Weather Reports


time (UTC)temp
C
wind
direction
speed
KPH
gust
KPH
rain 1hr
cm
rain 24hr
cm
rain mn
cm
humidity
%
barometer
mb
20260906165616 35 89 1.6 3.2 0.00 0.00 0.00 46 1017.7
20260906165111 34 134 0.0 1.6 0.00 0.00 0.00 48 1017.8
20260906164610 34 117 3.2 3.2 0.00 0.00 0.00 47 1018.1
20260906164106 34 116 4.8 4.8 0.00 0.00 0.00 47 1018.2
20260906163601 34 89 3.2 4.8 0.00 0.00 0.00 48 1018.0
20260906163057 34 96 4.8 4.8 0.00 0.00 0.00 49 1018.0
20260906162554 34 96 4.8 4.8 0.00 0.00 0.00 49 1018.4
20260906162049 33 17 6.4 8.0 0.00 0.00 0.00 49 1018.4
20260906161544 33 17 6.4 8.0 0.00 0.00 0.00 49 1018.3
20260906161043 -17 0.0 0.0 0.00 0.00 0.00 1018.2
20260906160542 33 102 3.2 3.2 0.00 0.00 0.00 51 1018.1
20260906160040 33 102 3.2 3.2 0.00 0.00 0.00 51 1018.3
20260906155538 33 102 3.2 3.2 0.00 0.00 0.00 51 1018.2
20260906155034 33 195 3.2 4.8 0.00 0.00 0.00 50 1018.1
20260906154530 33 139 1.6 1.6 0.00 0.00 0.00 49 1018.2
20260906154028 32 83 1.6 3.2 0.00 0.00 0.00 48 1018.2
20260906153527 33 162 0.0 1.6 0.00 0.00 0.00 50 1018.3
20260906153023 33 95 4.8 4.8 0.00 0.00 0.00 49 1018.2
20260906152517 32 142 1.6 1.6 0.00 0.00 0.00 49 1018.1
20260906152016 32 124 1.6 1.6 0.00 0.00 0.00 52 1018.0
20260906151512 32 175 3.2 3.2 0.00 0.00 0.00 53 1017.9
20260906151008 31 176 0.0 0.0 0.00 0.00 0.00 55 1018.1
20260906150502 31 153 0.0 0.0 0.00 0.00 0.00 56 1017.9
20260906150002 31 178 3.2 3.2 0.00 0.00 0.00 58 1018.0
20260906145456 31 157 0.0 0.0 0.00 0.00 0.00 59 1018.0
20260906144955 30 124 1.6 3.2 0.00 0.00 0.00 60 1018.0
20260906144450 30 153 1.6 3.2 0.00 0.00 0.00 60 1017.8
20260906143946 30 155 3.2 3.2 0.00 0.00 0.00 61 1017.8
20260906143441 30 161 1.6 1.6 0.00 0.00 0.00 61 1018.2
20260906142937 30 154 0.0 0.0 0.00 0.00 0.00 63 1017.9
20260906142431 30 132 1.6 1.6 0.00 0.00 0.00 64 1018.0
20260906141926 28 133 1.6 1.6 0.00 0.00 0.00 65 1018.0
20260906141426 28 107 3.2 3.2 0.00 0.00 0.00 64 1018.4
20260906140920 28 108 3.2 4.8 0.00 0.00 0.00 64 1018.1
20260906140414 28 124 0.0 1.6 0.00 0.00 0.00 66 1017.9
20260906135912 -17 0.0 0.0 0.00 0.00 0.00 1017.9
20260906135406 27 134 0.0 1.6 0.00 0.00 0.00 70 1017.7
20260906134902 27 134 0.0 1.6 0.00 0.00 0.00 70 1017.8
20260906134357 27 134 0.0 1.6 0.00 0.00 0.00 70 1017.9
20260906133852 -17 0.0 0.0 0.00 0.00 0.00 1017.9
20260906133348 -17 0.0 0.0 0.00 0.00 0.00 1017.8
20260906132843 28 127 0.0 1.6 0.00 0.00 0.00 69 1017.8
20260906132338 28 127 0.0 1.6 0.00 0.00 0.00 69 1018.0
20260906131834 28 90 0.0 0.0 0.00 0.00 0.00 69 1017.9
20260906131329 27 90 0.0 0.0 0.00 0.00 0.00 69 1017.9
20260906130825 27 90 0.0 0.0 0.00 0.00 0.00 69 1017.7
20260906130324 25 90 0.0 0.0 0.00 0.00 0.00 73 1017.6
20260906125823 25 90 0.0 0.0 0.00 0.00 0.00 77 1017.8
20260906125321 -17 0.0 0.0 0.00 0.00 0.00 1017.6
20260906124816 23 91 1.6 1.6 0.00 0.00 0.00 82 1017.6
20260906124312 23 91 1.6 1.6 0.00 0.00 0.00 82 1017.3
20260906123811 23 91 1.6 1.6 0.00 0.00 0.00 82 1017.3
20260906123306 23 91 1.6 1.6 0.00 0.00 0.00 81 1017.2
20260906122806 23 91 1.6 3.2 0.00 0.00 0.00 80 1017.2
20260906122301 23 90 0.0 0.0 0.00 0.00 0.00 82 1017.1
20260906121757 23 90 0.0 0.0 0.00 0.00 0.00 82 1017.0
20260906121253 22 90 0.0 0.0 0.00 0.00 0.00 83 1017.0
20260906120749 22 90 0.0 0.0 0.00 0.00 0.00 85 1017.0
20260906120246 22 90 0.0 1.6 0.00 0.00 0.00 84 1017.0
20260906115741 22 90 1.6 1.6 0.00 0.00 0.00 83 1016.7
20260906115236 22 90 3.2 3.2 0.00 0.00 0.00 82 1016.7
20260906114735 22 89 3.2 3.2 0.00 0.00 0.00 83 1016.7
20260906114231 22 89 4.8 4.8 0.00 0.00 0.00 83 1016.8
20260906113726 22 80 6.4 8.0 0.00 0.00 0.00 85 1016.7
20260906113225 22 80 6.4 8.0 0.00 0.00 0.00 85 1016.7
20260906112724 22 104 4.8 4.8 0.00 0.00 0.00 85 1016.7
20260906112222 22 103 3.2 3.2 0.00 0.00 0.00 86 1016.8
20260906111721 22 103 3.2 3.2 0.00 0.00 0.00 86 1016.5
20260906111215 22 102 4.8 4.8 0.00 0.00 0.00 84 1016.4
20260906110710 22 100 3.2 3.2 0.00 0.00 0.00 84 1016.6
20260906110207 22 95 4.8 4.8 0.00 0.00 0.00 83 1016.4
20260906105706 22 94 3.2 3.2 0.00 0.00 0.00 84 1016.5
20260906105202 22 137 3.2 3.2 0.00 0.00 0.00 85 1016.5
20260906104701 22 133 1.6 1.6 0.00 0.00 0.00 84 1016.4
20260906104201 22 92 3.2 3.2 0.00 0.00 0.00 84 1016.7
20260906103658 22 99 4.8 4.8 0.00 0.00 0.00 85 1016.5
20260906103154 22 131 0.0 0.0 0.00 0.00 0.00 86 1016.4
20260906102649 22 130 0.0 1.6 0.00 0.00 0.00 85 1016.3
20260906102143 22 130 0.0 0.0 0.00 0.00 0.00 83 1016.4
20260906101642 22 130 0.0 1.6 0.00 0.00 0.00 84 1016.5
20260906101137 22 130 1.6 1.6 0.00 0.00 0.00 83 1016.5
20260906100633 22 130 0.0 0.0 0.00 0.00 0.00 82 1016.3
20260906100127 22 130 1.6 1.6 0.00 0.00 0.00 82 1016.3
20260906095622 22 130 1.6 1.6 0.00 0.00 0.00 82 1016.6
20260906095118 23 130 1.6 3.2 0.00 0.00 0.00 81 1016.5
20260906094616 23 130 1.6 1.6 0.00 0.00 0.00 80 1016.4
20260906094112 23 130 1.6 1.6 0.00 0.00 0.00 80 1016.4
20260906093608 23 130 1.6 1.6 0.00 0.00 0.00 80 1016.3
20260906093103 23 129 1.6 1.6 0.00 0.00 0.00 79 1016.3
20260906092558 23 138 0.0 0.0 0.00 0.00 0.00 79 1016.2
20260906092053 23 138 0.0 0.0 0.00 0.00 0.00 79 1016.4
20260906091549 23 138 1.6 1.6 0.00 0.00 0.00 78 1016.2
20260906091045 23 138 0.0 1.6 0.00 0.00 0.00 78 1016.3
20260906090545 23 140 0.0 1.6 0.00 0.00 0.00 79 1016.3
20260906090040 23 147 0.0 0.0 0.00 0.00 0.00 79 1016.3
20260906085539 23 121 0.0 1.6 0.00 0.00 0.00 78 1016.1
20260906085038 23 120 3.2 3.2 0.00 0.00 0.00 78 1016.2
20260906084534 23 118 3.2 4.8 0.00 0.00 0.00 78 1016.2
20260906084032 23 163 1.6 1.6 0.00 0.00 0.00 77 1016.1
20260906083528 23 148 0.0 0.0 0.00 0.00 0.00 77 1015.9
20260906083027 24 148 0.0 0.0 0.00 0.00 0.00 76 1016.1
20260906082522 24 148 0.0 1.6 0.00 0.00 0.00 76 1016.1
20260906082018 23 87 4.8 4.8 0.00 0.00 0.00 77 1016.1
20260906081514 23 145 1.6 1.6 0.00 0.00 0.00 77 1016.1
20260906081010 24 133 1.6 1.6 0.00 0.00 0.00 77 1015.9
20260906080506 24 112 3.2 3.2 0.00 0.00 0.00 74 1015.9
20260906080001 24 99 4.8 4.8 0.00 0.00 0.00 74 1016.1
20260906075455 24 109 4.8 4.8 0.00 0.00 0.00 74 1015.8
20260906074950 25 102 4.8 4.8 0.00 0.00 0.00 73 1015.9
20260906074445 25 131 3.2 3.2 0.00 0.00 0.00 71 1016.1
20260906073943 25 132 1.6 3.2 0.00 0.00 0.00 71 1016.2
20260906073438 25 132 1.6 3.2 0.00 0.00 0.00 69 1016.1
20260906072935 26 132 1.6 3.2 0.00 0.00 0.00 68 1015.7
20260906072430 25 134 3.2 3.2 0.00 0.00 0.00 68 1016.4
20260906071926 26 131 1.6 1.6 0.00 0.00 0.00 66 1016.1
20260906071421 26 131 1.6 1.6 0.00 0.00 0.00 66 1016.2
20260906070917 26 127 1.6 1.6 0.00 0.00 0.00 66 1016.1
20260906070413 26 100 3.2 3.2 0.00 0.00 0.00 66 1016.1
20260906065909 26 90 6.4 8.0 0.00 0.00 0.00 66 1016.2
20260906065402 26 88 6.4 8.0 0.00 0.00 0.00 65 1015.9
20260906064859 26 88 8.0 8.0 0.00 0.00 0.00 64 1016.6
20260906064355 26 60 9.7 11.3 0.00 0.00 0.00 65 1016.4
20260906063854 26 76 8.0 8.0 0.00 0.00 0.00 66 1016.5
20260906063350 26 76 8.0 9.7 0.00 0.00 0.00 65 1016.4
20260906062845 27 64 6.4 8.0 0.00 0.00 0.00 65 1016.5
20260906062344 27 61 8.0 9.7 0.00 0.00 0.00 64 1016.4
20260906061840 27 48 11.3 12.9 0.00 0.00 0.00 64 1016.2
20260906061336 27 52 8.0 9.7 0.00 0.00 0.00 63 1016.3
20260906060830 26 66 8.0 9.7 0.00 0.00 0.00 64 1016.3
20260906060329 26 61 8.0 9.7 0.00 0.00 0.00 65 1016.1
20260906055824 26 55 6.4 8.0 0.00 0.00 0.00 65 1016.2
20260906055319 26 58 8.0 8.0 0.00 0.00 0.00 65 1016.4
20260906054815 26 54 8.0 8.0 0.00 0.00 0.00 65 1016.3
20260906054310 26 63 8.0 9.7 0.00 0.00 0.00 65 1016.5
20260906053806 26 49 8.0 8.0 0.00 0.00 0.00 64 1016.4
20260906053301 27 77 6.4 8.0 0.00 0.00 0.00 64 1016.4
20260906052756 27 66 8.0 9.7 0.00 0.00 0.00 63 1016.2
20260906052253 27 54 8.0 8.0 0.00 0.00 0.00 63 1016.2
20260906051750 27 63 8.0 9.7 0.00 0.00 0.00 63 1016.3
20260906051249 26 63 6.4 8.0 0.00 0.00 0.00 65 1016.1
20260906050744 26 62 6.4 8.0 0.00 0.00 0.00 65 1016.2
20260906050239 26 72 6.4 9.7 0.00 0.00 0.00 65 1016.2
20260906045738 26 71 6.4 8.0 0.00 0.00 0.00 65 1016.2
20260906045233 26 63 9.7 11.3 0.00 0.00 0.00 65 1016.2
20260906044729 26 54 8.0 9.7 0.00 0.00 0.00 65 1016.2
20260906044224 26 48 9.7 11.3 0.00 0.00 0.00 66 1016.3
20260906043720 26 68 8.0 9.7 0.00 0.00 0.00 66 1016.2
20260906043216 26 64 9.7 9.7 0.00 0.00 0.00 65 1016.2
20260906042715 27 66 6.4 8.0 0.00 0.00 0.00 65 1016.3
20260906042214 27 73 6.4 8.0 0.00 0.00 0.00 65 1016.3
20260906041710 27 56 8.0 8.0 0.00 0.00 0.00 65 1016.2
20260906041205 27 61 6.4 8.0 0.00 0.00 0.00 64 1016.2
20260906040701 27 79 4.8 4.8 0.00 0.00 0.00 64 1016.3
20260906040156 27 60 8.0 8.0 0.00 0.00 0.00 63 1016.3
20260906035651 27 62 6.4 8.0 0.00 0.00 0.00 62 1016.2
20260906035147 27 81 4.8 4.8 0.00 0.00 0.00 61 1016.1
20260906034642 27 66 4.8 4.8 0.00 0.00 0.00 60 1016.2
20260906034142 27 68 6.4 8.0 0.00 0.00 0.00 60 1016.3
20260906033637 27 72 6.4 8.0 0.00 0.00 0.00 61 1016.3
20260906033132 27 98 4.8 4.8 0.00 0.00 0.00 62 1016.4
20260906032629 28 83 6.4 8.0 0.00 0.00 0.00 61 1016.2
20260906032128 28 61 8.0 8.0 0.00 0.00 0.00 61 1016.2
20260906031624 28 88 6.4 8.0 0.00 0.00 0.00 60 1015.8
20260906031119 28 85 4.8 8.0 0.00 0.00 0.00 60 1016.2
20260906030618 28 64 6.4 8.0 0.00 0.00 0.00 58 1016.1
20260906030114 28 62 8.0 9.7 0.00 0.00 0.00 58 1015.9
20260906025613 28 75 6.4 8.0 0.00 0.00 0.00 58 1016.1
20260906025112 28 65 6.4 9.7 0.00 0.00 0.00 57 1015.9
20260906024607 29 69 4.8 8.0 0.00 0.00 0.00 56 1015.9
20260906024101 29 63 8.0 9.7 0.00 0.00 0.00 56 1015.9
20260906023557 29 58 6.4 8.0 0.00 0.00 0.00 56 1015.7
20260906023051 29 67 4.8 4.8 0.00 0.00 0.00 55 1015.8
20260906022547 29 62 6.4 8.0 0.00 0.00 0.00 56 1015.7
20260906022042 29 81 6.4 8.0 0.00 0.00 0.00 56 1015.8
20260906021538 29 100 1.6 3.2 0.00 0.00 0.00 56 1015.8
20260906021036 29 81 4.8 4.8 0.00 0.00 0.00 56 1015.6
20260906020531 30 66 8.0 8.0 0.00 0.00 0.00 56 1015.5
20260906020030 30 91 6.4 8.0 0.00 0.00 0.00 54 1015.4
20260906015529 30 72 6.4 9.7 0.00 0.00 0.00 54 1015.6
20260906015024 30 63 8.0 8.0 0.00 0.00 0.00 54 1015.2
20260906014519 30 77 4.8 4.8 0.00 0.00 0.00 53 1015.1
20260906014015 30 123 3.2 3.2 0.00 0.00 0.00 54 1015.0
20260906013510 30 85 3.2 3.2 0.00 0.00 0.00 53 1014.9
20260906013006 31 104 3.2 3.2 0.00 0.00 0.00 53 1015.2
20260906012501 31 40 4.8 4.8 0.00 0.00 0.00 52 1015.2
20260906012000 31 141 1.6 3.2 0.00 0.00 0.00 52 1015.0
20260906011456 31 123 4.8 4.8 0.00 0.00 0.00 53 1015.1
20260906010950 31 45 4.8 4.8 0.00 0.00 0.00 53 1014.8
20260906010446 31 68 6.4 8.0 0.00 0.00 0.00 53 1015.0
20260906005943 31 125 0.0 1.6 0.00 0.00 0.00 53 1014.8
20260906005442 31 125 0.0 1.6 0.00 0.00 0.00 52 1014.8
20260906004940 31 114 3.2 3.2 0.00 0.00 0.00 52 1014.8
20260906004434 31 60 6.4 8.0 0.00 0.00 0.00 53 1015.1
20260906003930 31 58 4.8 4.8 0.00 0.00 0.00 54 1014.9
20260906003425 32 233 6.4 8.0 0.00 0.00 0.00 54 1015.0
20260906002920 33 14 6.4 8.0 0.00 0.00 0.00 53 1014.9
20260906002420 35 172 3.2 4.8 0.00 0.00 0.00 43 1014.8
20260906001915 35 183 1.6 1.6 0.00 0.00 0.00 42 1014.5
20260906001411 36 183 0.0 0.0 0.00 0.00 0.00 42 1014.6
20260906000910 36 183 0.0 0.0 0.00 0.00 0.00 45 1014.6
20260906000406 36 183 0.0 0.0 0.00 0.00 0.00 44 1014.6
20260905235855 36 183 0.0 0.0 0.00 0.00 0.00 43 1014.8
20260905235349 36 182 0.0 0.0 0.00 0.00 0.00 41 1014.7
20260905234844 36 182 0.0 0.0 0.00 0.00 0.00 41 1014.7
20260905234339 37 185 1.6 1.6 0.00 0.00 0.00 39 1014.7
20260905233835 37 185 1.6 1.6 0.00 0.00 0.00 39 1014.7
20260905233329 37 179 0.0 1.6 0.00 0.00 0.00 38 1014.6
20260905232828 37 178 0.0 0.0 0.00 0.00 0.00 40 1014.7
20260905232325 37 166 1.6 1.6 0.00 0.00 0.00 37 1014.7
20260905231820 37 190 1.6 3.2 0.00 0.00 0.00 38 1014.5
20260905231315 36 180 1.6 1.6 0.00 0.00 0.00 37 1014.6
20260905230812 36 188 4.8 4.8 0.00 0.00 0.00 38 1014.6
20260905230310 36 244 6.4 8.0 0.00 0.00 0.00 37 1014.7
20260905225809 36 175 4.8 4.8 0.00 0.00 0.00 38 1014.7
20260905225306 36 199 6.4 8.0 0.00 0.00 0.00 37 1014.6
20260905224804 36 173 3.2 3.2 0.00 0.00 0.00 38 1014.6
20260905224300 36 249 8.0 9.7 0.00 0.00 0.00 38 1014.5
20260905223755 37 279 6.4 8.0 0.00 0.00 0.00 37 1014.4
20260905223252 37 278 4.8 4.8 0.00 0.00 0.00 37 1014.7
20260905222747 37 247 4.8 4.8 0.00 0.00 0.00 37 1014.5
20260905222246 36 125 3.2 3.2 0.00 0.00 0.00 37 1014.6
20260905221742 37 285 6.4 8.0 0.00 0.00 0.00 37 1014.6
20260905221239 37 103 3.2 3.2 0.00 0.00 0.00 36 1014.5
20260905220734 36 181 3.2 3.2 0.00 0.00 0.00 36 1014.7
20260905220230 36 142 3.2 3.2 0.00 0.00 0.00 37 1014.8
20260905215730 36 134 4.8 8.0 0.00 0.00 0.00 37 1014.6
20260905215226 37 159 1.6 1.6 0.00 0.00 0.00 36 1014.8
20260905214721 37 126 0.0 3.2 0.00 0.00 0.00 35 1014.8
20260905214217 37 126 0.0 3.2 0.00 0.00 0.00 35 1014.8
20260905213712 37 157 0.0 0.0 0.00 0.00 0.00 34 1014.9
20260905213208 37 157 0.0 0.0 0.00 0.00 0.00 34 1015.0
20260905212703 37 115 3.2 3.2 0.00 0.00 0.00 36 1014.8
20260905212202 37 48 8.0 11.3 0.00 0.00 0.00 35 1015.0
20260905211656 37 139 3.2 3.2 0.00 0.00 0.00 35 1014.9
20260905211152 37 139 3.2 3.2 0.00 0.00 0.00 35 1015.2
20260905210649 37 144 3.2 3.2 0.00 0.00 0.00 36 1015.4
20260905210149 37 144 3.2 3.2 0.00 0.00 0.00 36 1015.3
20260905205647 37 144 3.2 3.2 0.00 0.00 0.00 36 1015.3
20260905205147 36 157 1.6 1.6 0.00 0.00 0.00 37 1015.4
20260905204647 36 157 1.6 1.6 0.00 0.00 0.00 37 1015.4
20260905204142 36 157 1.6 1.6 0.00 0.00 0.00 37 1015.5
20260905203637 36 326 4.8 8.0 0.00 0.00 0.00 38 1015.5
20260905203132 -17 0.0 0.0 0.00 0.00 0.00 1015.9
20260905202628 36 172 1.6 3.2 0.00 0.00 0.00 37 1015.7
20260905202123 36 172 1.6 3.2 0.00 0.00 0.00 37 1015.8
20260905201619 36 198 4.8 8.0 0.00 0.00 0.00 37 1016.1
20260905201118 36 288 6.4 8.0 0.00 0.00 0.00 38 1016.2
20260905200614 36 84 3.2 4.8 0.00 0.00 0.00 38 1016.1
20260905200109 36 178 0.0 1.6 0.00 0.00 0.00 38 1016.3
20260905195607 36 273 8.0 9.7 0.00 0.00 0.00 38 1016.1
20260905195103 36 286 8.0 11.3 0.00 0.00 0.00 39 1016.2
20260905194603 36 299 12.9 12.9 0.00 0.00 0.00 39 1016.5
20260905194102 36 60 6.4 9.7 0.00 0.00 0.00 38 1016.5
20260905193557 36 174 3.2 4.8 0.00 0.00 0.00 41 1016.4
20260905193052 36 176 0.0 1.6 0.00 0.00 0.00 40 1016.5
20260905192548 36 192 6.4 9.7 0.00 0.00 0.00 42 1016.5
20260905192044 35 213 6.4 9.7 0.00 0.00 0.00 41 1016.7
20260905191542 34 72 4.8 4.8 0.00 0.00 0.00 43 1016.8
20260905191042 34 28 8.0 9.7 0.00 0.00 0.00 44 1016.8
20260905190540 35 77 9.7 12.9 0.00 0.00 0.00 42 1016.8
20260905190034 35 172 3.2 3.2 0.00 0.00 0.00 42 1017.0
20260905185533 36 98 4.8 8.0 0.00 0.00 0.00 41 1017.0
20260905185033 35 170 8.0 9.7 0.00 0.00 0.00 42 1017.2
20260905184533 35 170 8.0 9.7 0.00 0.00 0.00 42 1017.3
20260905184031 35 190 6.4 8.0 0.00 0.00 0.00 42 1017.3
20260905183526 35 335 6.4 8.0 0.00 0.00 0.00 43 1017.3
20260905183021 35 196 4.8 8.0 0.00 0.00 0.00 43 1017.1
20260905182520 36 3 8.0 9.7 0.00 0.00 0.00 41 1017.4
20260905182015 35 193 4.8 4.8 0.00 0.00 0.00 41 1017.6
20260905181510 35 166 0.0 1.6 0.00 0.00 0.00 41 1017.6
20260905181009 35 238 6.4 9.7 0.00 0.00 0.00 42 1017.7
20260905180504 35 90 4.8 4.8 0.00 0.00 0.00 42 1017.6
20260905175959 35 243 8.0 9.7 0.00 0.00 0.00 44 1017.7
20260905175458 34 174 1.6 1.6 0.00 0.00 0.00 43 1017.8
20260905174954 35 240 6.4 8.0 0.00 0.00 0.00 44 1017.9
20260905174449 35 240 6.4 8.0 0.00 0.00 0.00 44 1017.9
20260905173945 35 314 12.9 12.9 0.00 0.00 0.00 43 1018.0
20260905173441 34 261 9.7 11.3 0.00 0.00 0.00 46 1018.1
20260905172936 34 261 9.7 11.3 0.00 0.00 0.00 46 1018.0
20260905172434 34 341 11.3 12.9 0.00 0.00 0.00 46 1018.1
20260905171930 33 199 4.8 8.0 0.00 0.00 0.00 47 1018.3
20260905171427 33 179 1.6 3.2 0.00 0.00 0.00 48 1018.2
20260905170923 33 228 8.0 9.7 0.00 0.00 0.00 49 1018.1
20260905170419 33 175 9.7 11.3 0.00 0.00 0.00 50 1018.4
20260905165918 33 175 9.7 11.3 0.00 0.00 0.00 50 1018.6